GW4922 Weather Reports


time (UTC)temp
C
wind
direction
speed
KPH
gust
KPH
rain 1hr
cm
rain 24hr
cm
rain mn
cm
humidity
%
barometer
mb
20260506223110 27 167 6.4 6.4 0.00 0.00 0.00 84 1008.4
20260506222608 27 167 6.4 6.4 0.00 0.00 0.00 84 1008.5
20260506222104 27 167 6.4 6.4 0.00 0.00 0.00 84 1008.6
20260506221602 27 167 6.4 6.4 0.00 0.00 0.00 84 1008.7
20260506221100 27 167 6.4 6.4 0.00 0.00 0.00 84 1008.7
20260506220555 27 167 6.4 6.4 0.00 0.00 0.00 84 1008.5
20260506220051 27 167 6.4 6.4 0.00 0.00 0.00 84 1008.7
20260506215548 27 167 6.4 6.4 0.00 0.00 0.00 84 1008.6
20260506215043 27 167 6.4 6.4 0.00 0.00 0.00 84 1008.6
20260506214541 27 167 6.4 6.4 0.00 0.00 0.00 84 1008.7
20260506214038 28 177 11.3 12.9 0.00 0.00 0.00 82 1008.6
20260506213536 28 147 12.9 17.7 0.00 0.00 0.00 80 1008.5
20260506213033 28 171 6.4 9.7 0.00 0.00 0.00 79 1008.5
20260506212530 29 162 11.3 12.9 0.00 0.00 0.00 78 1008.6
20260506212024 30 159 4.8 9.7 0.00 0.00 0.00 78 1008.7
20260506211521 29 161 8.0 11.3 0.00 0.00 0.00 79 1008.5
20260506211018 29 161 8.0 11.3 0.00 0.00 0.00 79 1008.6
20260506210514 29 146 4.8 4.8 0.00 0.00 0.00 79 1008.5
20260506210011 29 147 8.0 9.7 0.00 0.00 0.00 78 1008.6
20260506205508 29 183 4.8 11.3 0.00 0.00 0.00 78 1008.6
20260506205003 30 169 8.0 14.5 0.00 0.00 0.00 77 1008.5
20260506204502 30 165 6.4 14.5 0.00 0.00 0.00 77 1008.8
20260506203958 30 187 8.0 11.3 0.00 0.00 0.00 78 1008.5
20260506203456 30 173 8.0 11.3 0.00 0.00 0.00 78 1008.7
20260506202953 30 167 9.7 14.5 0.00 0.00 0.00 77 1008.8
20260506202450 30 161 9.7 11.3 0.00 0.00 0.00 79 1008.7
20260506201946 30 147 8.0 11.3 0.00 0.00 0.00 79 1008.9
20260506201444 30 167 9.7 16.1 0.00 0.00 0.00 79 1008.9
20260506200940 28 156 8.0 9.7 0.00 0.00 0.00 80 1008.9
20260506200437 29 156 9.7 12.9 0.00 0.00 0.00 80 1009.0
20260506195933 29 171 4.8 6.4 0.00 0.00 0.00 80 1009.1
20260506195430 29 183 9.7 14.5 0.00 0.00 0.00 80 1009.2
20260506194927 28 176 6.4 12.9 0.00 0.00 0.00 83 1009.2
20260506194424 28 149 12.9 16.1 0.00 0.00 0.00 83 1009.2
20260506193921 28 152 11.3 14.5 0.00 0.00 0.00 82 1009.4
20260506193418 28 186 11.3 16.1 0.00 0.00 0.00 81 1009.2
20260506192914 28 181 11.3 12.9 0.00 0.00 0.00 82 1009.3
20260506192411 28 155 9.7 12.9 0.00 0.00 0.00 83 1009.4
20260506191908 28 158 8.0 12.9 0.00 0.00 0.00 83 1009.6
20260506191404 28 148 6.4 11.3 0.00 0.00 0.00 83 1009.6
20260506190902 28 159 12.9 14.5 0.00 0.00 0.00 84 1009.7
20260506190358 28 156 8.0 11.3 0.00 0.00 0.00 85 1009.7
20260506185855 27 171 4.8 9.7 0.00 0.00 0.00 86 1009.9
20260506185352 27 147 8.0 11.3 0.00 0.00 0.00 88 1009.9
20260506184849 27 160 1.6 9.7 0.00 0.00 0.00 89 1010.2
20260506184346 27 132 4.8 6.4 0.00 0.00 0.00 89 1010.2
20260506183843 27 142 4.8 6.4 0.00 0.00 0.00 88 1010.3
20260506183338 27 114 8.0 9.7 0.00 0.00 0.00 85 1010.2
20260506182836 27 165 8.0 11.3 0.00 0.00 0.00 85 1010.3
20260506182333 27 158 8.0 9.7 0.00 0.00 0.00 85 1010.2
20260506181831 27 165 4.8 4.8 0.00 0.00 0.00 84 1010.4
20260506181328 27 167 6.4 6.4 0.00 0.00 0.00 83 1010.2
20260506180825 27 167 6.4 6.4 0.00 0.00 0.00 83 1010.3
20260506180321 27 140 6.4 9.7 0.00 0.00 0.00 84 1010.4
20260506175817 27 140 6.4 9.7 0.00 0.00 0.00 84 1010.6
20260506175315 27 175 3.2 4.8 0.00 0.00 0.00 84 1010.7
20260506174812 27 158 4.8 4.8 0.00 0.00 0.00 83 1010.9
20260506174309 28 177 8.0 9.7 0.00 0.00 0.00 84 1010.5
20260506173806 28 177 8.0 9.7 0.00 0.00 0.00 84 1010.7
20260506173303 27 125 4.8 4.8 0.00 0.00 0.00 86 1010.8
20260506172800 27 125 4.8 4.8 0.00 0.00 0.00 86 1010.8
20260506172256 27 125 4.8 4.8 0.00 0.00 0.00 86 1010.8
20260506171754 27 125 4.8 4.8 0.00 0.00 0.00 86 1010.9
20260506171251 27 173 1.6 3.2 0.00 0.00 0.00 87 1011.0
20260506170749 27 144 8.0 9.7 0.00 0.00 0.00 87 1010.8
20260506170245 27 167 4.8 9.7 0.00 0.00 0.00 88 1010.7
20260506165744 27 178 4.8 9.7 0.00 0.00 0.00 88 1010.9
20260506165240 26 173 3.2 3.2 0.00 0.00 0.00 89 1011.0
20260506164738 26 168 4.8 9.7 0.00 0.00 0.00 89 1010.9
20260506164234 26 134 6.4 11.3 0.00 0.00 0.00 89 1010.8
20260506163731 26 114 9.7 11.3 0.00 0.00 0.00 91 1010.6
20260506163226 26 114 9.7 11.3 0.00 0.00 0.00 91 1010.7
20260506162722 26 163 6.4 6.4 0.00 0.00 0.00 92 1010.7
20260506162220 26 136 8.0 12.9 0.00 0.00 0.00 91 1010.5
20260506161717 26 65 9.7 12.9 0.00 0.00 0.00 92 1010.5
20260506161214 25 86 3.2 3.2 0.00 0.00 0.00 95 1010.8
20260506160712 25 86 3.2 3.2 0.00 0.00 0.00 95 1010.6
20260506160208 25 86 3.2 3.2 0.00 0.00 0.00 95 1010.6
20260506155707 25 86 3.2 3.2 0.00 0.00 0.00 95 1010.6
20260506155204 25 160 3.2 3.2 0.00 0.00 0.00 96 1010.5
20260506153305 25 160 3.2 3.2 0.00 0.00 0.00 96 1010.3
20260506152802 25 160 3.2 3.2 0.00 0.00 0.00 96 1010.6
20260506152300 25 160 3.2 3.2 0.00 0.00 0.00 96 1010.3
20260506151758 25 160 3.2 3.2 0.00 0.00 0.00 96 1010.3
20260506151255 25 160 3.2 3.2 0.00 0.00 0.00 96 1010.4
20260506150751 25 163 8.0 9.7 0.00 0.00 0.00 96 1010.2
20260506150249 25 163 8.0 9.7 0.00 0.00 0.00 96 1010.1
20260506145745 25 163 8.0 9.7 0.00 0.00 0.00 96 1010.1
20260506145241 25 163 8.0 9.7 0.00 0.00 0.00 96 1009.7
20260506144739 25 163 8.0 9.7 0.00 0.00 0.00 96 1009.7
20260506144236 25 163 8.0 9.7 0.00 0.00 0.00 96 1009.8
20260506143734 25 132 1.6 6.4 0.00 0.00 0.00 96 1009.4
20260506143231 25 82 0.0 6.4 0.00 0.00 0.00 96 1009.5
20260506142730 24 86 3.2 4.8 0.00 0.00 0.00 96 1009.7
20260506142227 24 86 3.2 4.8 0.00 0.00 0.00 96 1009.6
20260506141725 24 86 3.2 4.8 0.00 0.00 0.00 96 1009.8
20260506141223 24 119 3.2 3.2 0.00 0.00 0.00 96 1009.9
20260506140720 24 119 1.6 3.2 0.00 0.00 0.00 96 1009.9
20260506140217 24 130 0.0 3.2 0.00 0.00 0.00 96 1009.8
20260506135714 24 152 1.6 4.8 0.00 0.00 0.00 96 1009.7
20260506135210 24 81 4.8 4.8 0.00 0.00 0.00 96 1009.7
20260506134707 24 132 0.0 3.2 0.00 0.00 0.00 96 1009.9
20260506134203 24 129 0.0 0.0 0.00 0.00 0.00 96 1009.9
20260506133701 24 154 0.0 0.0 0.00 0.00 0.00 96 1009.7
20260506133157 24 143 0.0 0.0 0.00 0.00 0.00 96 1009.6
20260506132655 24 154 0.0 0.0 0.00 0.00 0.00 96 1009.6
20260506132151 24 61 1.6 3.2 0.00 0.00 0.00 96 1009.7
20260506131649 24 117 1.6 3.2 0.00 0.00 0.00 96 1009.9
20260506131145 24 149 0.0 1.6 0.00 0.00 0.00 96 1009.8
20260506130642 24 155 0.0 1.6 0.00 0.00 0.00 96 1009.9
20260506130139 23 172 1.6 3.2 0.00 0.00 0.00 96 1009.7
20260506125637 23 135 0.0 0.0 0.00 0.00 0.00 96 1009.9
20260506125134 23 156 0.0 0.0 0.00 0.00 0.00 96 1009.8
20260506124633 23 163 0.0 0.0 0.00 0.00 0.00 96 1009.6
20260506124130 23 162 0.0 0.0 0.00 0.00 0.00 96 1009.8
20260506123627 23 149 1.6 1.6 0.00 0.00 0.00 96 1009.8
20260506123126 23 149 0.0 1.6 0.00 0.00 0.00 96 1009.6
20260506122622 23 165 0.0 0.0 0.00 0.00 0.00 96 1009.8
20260506122120 23 170 0.0 0.0 0.00 0.00 0.00 96 1009.6
20260506121618 23 170 0.0 0.0 0.00 0.00 0.00 96 1009.7
20260506121114 23 171 0.0 0.0 0.00 0.00 0.00 96 1009.5
20260506120612 23 171 0.0 0.0 0.00 0.00 0.00 96 1009.7
20260506120109 23 171 0.0 0.0 0.00 0.00 0.00 96 1009.8
20260506115608 23 171 0.0 0.0 0.00 0.00 0.00 96 1009.6
20260506115105 23 166 0.0 0.0 0.00 0.00 0.00 96 1009.5
20260506114602 23 166 0.0 0.0 0.00 0.00 0.00 96 1009.3
20260506114100 23 166 0.0 0.0 0.00 0.00 0.00 96 1009.4
20260506113558 23 165 0.0 0.0 0.00 0.00 0.00 96 1009.4
20260506113055 23 160 0.0 0.0 0.00 0.00 0.00 96 1009.2
20260506112551 23 160 0.0 0.0 0.00 0.00 0.00 95 1009.0
20260506112049 23 160 0.0 0.0 0.00 0.00 0.00 95 1009.1
20260506111547 23 161 0.0 0.0 0.00 0.00 0.00 95 1008.9
20260506111044 23 151 0.0 0.0 0.00 0.00 0.00 95 1009.0
20260506110541 23 157 0.0 0.0 0.00 0.00 0.00 95 1009.0
20260506110039 23 149 0.0 0.0 0.00 0.00 0.00 95 1008.9
20260506105534 23 140 0.0 1.6 0.00 0.00 0.00 95 1008.9
20260506105032 23 157 0.0 0.0 0.00 0.00 0.00 95 1009.1
20260506104530 23 114 1.6 1.6 0.00 0.00 0.00 95 1008.8
20260506104028 23 147 0.0 1.6 0.00 0.00 0.00 95 1008.9
20260506103525 23 161 0.0 0.0 0.00 0.00 0.00 95 1008.9
20260506103021 23 161 0.0 0.0 0.00 0.00 0.00 95 1008.9
20260506102520 23 161 0.0 0.0 0.00 0.00 0.00 95 1008.9
20260506102017 22 176 0.0 0.0 0.00 0.00 0.00 95 1008.8
20260506101513 22 177 0.0 0.0 0.00 0.00 0.00 95 1008.7
20260506101010 22 172 0.0 0.0 0.00 0.00 0.00 95 1008.9
20260506100509 22 172 0.0 0.0 0.00 0.00 0.00 95 1008.7
20260506100007 22 173 0.0 0.0 0.00 0.00 0.00 95 1008.9
20260506095505 22 175 0.0 0.0 0.00 0.00 0.00 95 1008.6
20260506095000 22 162 0.0 0.0 0.00 0.00 0.00 95 1008.7
20260506094459 22 162 0.0 0.0 0.00 0.00 0.00 95 1008.6
20260506093956 22 162 0.0 0.0 0.00 0.00 0.00 95 1008.7
20260506093454 22 162 0.0 0.0 0.00 0.00 0.00 94 1008.6
20260506092952 22 162 0.0 0.0 0.00 0.00 0.00 94 1008.4
20260506092449 22 162 0.0 0.0 0.00 0.00 0.00 94 1008.6
20260506091946 23 161 0.0 0.0 0.00 0.00 0.00 94 1008.4
20260506091444 23 161 0.0 0.0 0.00 0.00 0.00 94 1008.4
20260506090941 23 141 3.2 3.2 0.00 0.00 0.00 94 1008.6
20260506090439 23 141 3.2 3.2 0.00 0.00 0.00 94 1008.6
20260506085935 23 141 3.2 3.2 0.00 0.00 0.00 94 1008.5
20260506085432 23 164 0.0 1.6 0.00 0.00 0.00 94 1008.3
20260506084928 23 135 3.2 3.2 0.00 0.00 0.00 94 1008.5
20260506084425 23 162 1.6 3.2 0.00 0.00 0.00 94 1008.7
20260506083921 23 152 3.2 3.2 0.00 0.00 0.00 94 1008.7
20260506083419 23 157 3.2 3.2 0.00 0.00 0.00 94 1008.6
20260506082916 23 136 4.8 6.4 0.00 0.00 0.00 94 1008.7
20260506082413 23 156 4.8 6.4 0.00 0.00 0.00 93 1008.6
20260506081908 23 115 4.8 6.4 0.00 0.00 0.00 93 1008.8
20260506081407 23 120 4.8 4.8 0.00 0.00 0.00 93 1008.9
20260506080904 23 162 3.2 4.8 0.00 0.00 0.00 93 1008.8
20260506080401 23 140 4.8 6.4 0.00 0.00 0.00 93 1008.9
20260506073345 24 145 9.7 9.7 0.00 0.00 0.00 92 1009.2
20260506072841 24 156 6.4 9.7 0.00 0.00 0.00 92 1009.6
20260506072339 24 130 6.4 6.4 0.00 0.00 0.00 92 1009.5
20260506071837 24 163 8.0 11.3 0.00 0.00 0.00 91 1009.5
20260506071335 25 149 6.4 11.3 0.00 0.00 0.00 91 1009.5
20260506070831 25 158 4.8 4.8 0.00 0.00 0.00 91 1009.5
20260506070328 25 165 6.4 6.4 0.00 0.00 0.00 91 1009.6
20260506062306 25 147 11.3 12.9 0.00 0.00 0.00 90 1009.8
20260506061801 25 174 9.7 11.3 0.00 0.00 0.00 90 1009.8
20260506061258 25 140 4.8 12.9 0.00 0.00 0.00 90 1009.8
20260506060757 25 165 6.4 9.7 0.00 0.00 0.00 90 1009.7
20260506060254 25 139 6.4 6.4 0.00 0.00 0.00 90 1009.6
20260506051226 25 143 8.0 9.7 0.00 0.00 0.00 90 1009.7
20260506050724 25 152 8.0 9.7 0.00 0.00 0.00 90 1009.6
20260506050221 25 150 8.0 11.3 0.00 0.00 0.00 90 1009.7
20260506044712 25 136 11.3 14.5 0.00 0.00 0.00 90 1009.5
20260506044209 25 162 11.3 12.9 0.00 0.00 0.00 90 1009.4
20260506043706 25 86 8.0 12.9 0.00 0.00 0.00 90 1009.3
20260506043204 25 101 11.3 16.1 0.00 0.00 0.00 90 1009.3
20260506042703 25 156 9.7 14.5 0.00 0.00 0.00 90 1009.4
20260506042200 25 168 9.7 12.9 0.00 0.00 0.00 90 1009.3
20260506041659 25 129 8.0 9.7 0.00 0.00 0.00 90 1009.5
20260506041155 25 175 9.7 11.3 0.00 0.00 0.00 90 1009.4
20260506040653 25 122 11.3 12.9 0.00 0.00 0.00 90 1009.5
20260506040149 25 131 8.0 9.7 0.00 0.00 0.00 90 1009.4
20260506035646 25 103 9.7 12.9 0.00 0.00 0.00 90 1009.3
20260506035143 25 147 8.0 16.1 0.00 0.00 0.00 90 1009.1
20260506034640 25 160 8.0 16.1 0.00 0.00 0.00 90 1009.2
20260506034137 25 151 12.9 17.7 0.00 0.00 0.00 91 1009.1
20260506033634 25 152 6.4 6.4 0.00 0.00 0.00 91 1009.3
20260506033131 25 128 12.9 14.5 0.00 0.00 0.00 91 1009.4
20260506032628 25 141 8.0 9.7 0.00 0.00 0.00 90 1009.4
20260506032125 25 143 8.0 11.3 0.00 0.00 0.00 90 1009.1
20260506031623 25 155 6.4 9.7 0.00 0.00 0.00 90 1009.3
20260506031119 25 145 3.2 4.8 0.00 0.00 0.00 90 1009.1
20260506030618 25 139 6.4 6.4 0.00 0.00 0.00 90 1009.1
20260506030115 25 138 8.0 11.3 0.00 0.00 0.00 90 1009.0
20260506025612 25 149 6.4 9.7 0.00 0.00 0.00 90 1009.0
20260506025107 25 149 4.8 6.4 0.00 0.00 0.00 90 1008.9
20260506024605 25 157 4.8 4.8 0.00 0.00 0.00 90 1008.9
20260506024101 25 159 4.8 6.4 0.00 0.00 0.00 89 1008.9
20260506023557 25 149 8.0 9.7 0.00 0.00 0.00 89 1008.9
20260506023055 25 142 4.8 9.7 0.00 0.00 0.00 89 1008.6
20260506022552 25 158 6.4 9.7 0.00 0.00 0.00 89 1008.9
20260506022049 25 155 4.8 4.8 0.00 0.00 0.00 89 1008.6
20260506021547 25 152 6.4 6.4 0.00 0.00 0.00 89 1008.7
20260506021044 25 136 9.7 11.3 0.00 0.00 0.00 89 1008.5
20260506020541 25 169 6.4 6.4 0.00 0.00 0.00 88 1008.3
20260506020039 25 163 9.7 11.3 0.00 0.00 0.00 88 1008.4
20260506015536 25 142 6.4 9.7 0.00 0.00 0.00 88 1008.2
20260506015033 25 149 8.0 12.9 0.00 0.00 0.00 88 1008.1
20260506014530 25 141 8.0 9.7 0.00 0.00 0.00 88 1007.9
20260506014026 25 155 8.0 9.7 0.00 0.00 0.00 88 1008.1
20260506013524 25 137 8.0 11.3 0.00 0.00 0.00 88 1007.9
20260506013021 25 149 6.4 6.4 0.00 0.00 0.00 88 1007.9
20260506012517 25 155 6.4 9.7 0.00 0.00 0.00 87 1007.7
20260506012014 25 149 12.9 17.7 0.00 0.00 0.00 87 1007.4
20260506011512 25 143 12.9 17.7 0.00 0.00 0.00 87 1007.6
20260506011008 25 161 11.3 14.5 0.00 0.00 0.00 87 1007.3
20260506010507 25 129 9.7 11.3 0.00 0.00 0.00 87 1007.4
20260506010003 25 154 9.7 17.7 0.00 0.00 0.00 87 1007.3
20260506005500 25 174 11.3 16.1 0.00 0.00 0.00 87 1007.2
20260506004956 25 149 6.4 11.3 0.00 0.00 0.00 86 1007.2
20260506004454 25 155 11.3 16.1 0.00 0.00 0.00 86 1007.3
20260506003950 25 164 11.3 17.7 0.00 0.00 0.00 86 1007.2
20260506003446 25 171 14.5 17.7 0.00 0.00 0.00 86 1007.3
20260506002942 26 147 14.5 17.7 0.00 0.00 0.00 85 1007.0
20260506002439 26 135 11.3 14.5 0.00 0.00 0.00 85 1007.2
20260506001934 26 178 12.9 14.5 0.00 0.00 0.00 84 1007.2
20260506001432 26 162 12.9 20.9 0.00 0.00 0.00 84 1007.2
20260506000929 26 145 9.7 12.9 0.00 0.00 0.00 84 1007.2
20260506000426 26 163 9.7 17.7 0.00 0.00 0.00 84 1007.1
20260505235923 26 133 14.5 20.9 0.00 0.00 0.00 84 1007.2
20260505235421 26 146 9.7 12.9 0.00 0.00 0.00 83 1007.1
20260505234918 26 170 8.0 20.9 0.00 0.00 0.00 82 1007.1
20260505234415 26 175 14.5 20.9 0.00 0.00 0.00 82 1007.3
20260505233912 26 134 9.7 16.1 0.00 0.00 0.00 82 1007.3
20260505233410 26 154 14.5 16.1 0.00 0.00 0.00 82 1007.2
20260505232907 26 159 11.3 22.5 0.00 0.00 0.00 81 1007.4
20260505232405 26 165 20.9 24.1 0.00 0.00 0.00 81 1007.4
20260505231901 26 153 8.0 16.1 0.00 0.00 0.00 81 1007.4
20260505231359 26 136 14.5 22.5 0.00 0.00 0.00 80 1007.4
20260505230857 26 173 8.0 16.1 0.00 0.00 0.00 81 1007.4
20260505230354 26 140 11.3 17.7 0.00 0.00 0.00 80 1007.5
20260505225850 27 137 12.9 20.9 0.00 0.00 0.00 80 1007.3
20260505225348 27 143 8.0 12.9 0.00 0.00 0.00 80 1007.3
20260505224842 27 178 11.3 14.5 0.00 0.00 0.00 79 1007.4
20260505224341 27 139 9.7 14.5 0.00 0.00 0.00 79 1007.3
20260505223838 26 162 9.7 16.1 0.00 0.00 0.00 79 1007.5
20260505223334 27 208 14.5 20.9 0.00 0.00 0.00 79 1007.8